sat.trackr.live / text

‹ back to catalog

STARLINK-32870

NORAD 63018 · 2025-032P

PAYLOAD ACTIVE UNKNOWN

§ Identity

Operator
Country
US
Launch date
2025-02-15
Launch site
AFETR
Launch vehicle
Mass (kg)
RCS (m²)

Purposes: comms

External: N2YO · Heavens-Above · Gunter

§ Orbital elements

Epoch: 2026-09-21T10:05:38.293440Z

Period
94.27 min
Inclination
43.0005°
Eccentricity
0.0001081
Mean motion
15.27592306 rev/d
Perigee alt
482.3 km
Apogee alt
483.8 km
Semi-major
6,861.1 km
B*
2.9785e-4
RAAN
310.7393°
Arg perigee
268.0118°
Mean anomaly
92.0610°
Rev number
9,055

§ Raw data

STARLINK-328701 63018U 25032P   26264.42058210  .00007946  00000+0  29785-3 0  99912 63018  43.0005 310.7393 0001081 268.0118  92.0610 15.27592306 90551

JSON: /api/v1/satellites/63018 · /tle

For live sub-satellite position, see the globe view (requires WebGL).

§ Visibility from observer

Set your observer location to see the next 7 days of passes ≥ 10°. The values pass through the URL so the page stays shareable.

No JS? Fill the form by hand. The geolocation button needs JavaScript.